Weather Roundup
Issued by NWS Springfield, MO

Home | Current Version | Previous Version | Text Only | Print | Product List | Glossary On
Versions: 1 2 3 4 5 6 7 8 9 10 11 12 13 14 15 16 17 18 19 20 21 22 23 24 25 26 27 28 29 30 31 32 33 34 35 36 37 38 39 40 41 42 43 44 45 46 47 48 49 50
000
NZUS99 KSGF 262007
HRRSGF

HOURLY WEATHER
NATIONAL WEATHER SERVICE SPRINGFIELD MO
300 PM CDT THU MAR 26 2015

......SGF CWA......

CITY           SKY/WX    TMP DP  RH WIND       PRES   REMARKS
SPRINGFIELD    SUNNY     51  29  42 N17       30.08F
JOPLIN         SUNNY     51  29  42 N12G18    30.13F
WEST PLAINS    SUNNY     51  30  44 MISG      30.06F
ROLLA          SUNNY     47  31  53 MISG      30.05F
OSAGE BEACH    SUNNY     48  27  43 NW6G17    30.09F
BRANSON        MOSUNNY   50  32  50 N8G21     30.08F

......SURROUNDING SGF CWA......

CITY           SKY/WX    TMP DP  RH WIND       PRES   REMARKS
CHANUTE        SUNNY     53  28  38 NW10      30.15F
PARSONS        SUNNY     54  30  40 N12G18    30.16F
COFFEYVILLE    SUNNY     54  29  38 N14G20    30.15F
EMPORIA        SUNNY     52  24  33 N10       30.14F
GROVE OK       SUNNY     54  32  43 N10G17    30.14F
ROGERS AR      SUNNY     51  30  44 N10G22    30.10F
SILOAM SPRINGS SUNNY     54  34  47 N17       30.12F
HARRISON AR    SUNNY     51  33  50 NW15      30.07F
NEAR YELLVILLE SUNNY     52  34  50 N10       30.06F

......KANSAS AND MISSOURI......

CITY           SKY/WX    TMP DP  RH WIND       PRES   REMARKS
KANSAS CTY INT PTSUNNY   49  29  46 NW9       30.13F
DOWNTOWN KC    SUNNY     51  26  37 NW8       30.13F
COLUMBIA       SUNNY     49  29  46 NW17      30.08F
SEDALIA        MOSUNNY   49  31  49 NW14G22   30.12F
ST JOSEPH      SUNNY     48  27  44 VRB7      30.13F
ST LOUIS       MOSUNNY   48  29  47 NW10      30.05F
SPIRIT OF STL  MOSUNNY   48  27  44 N13       30.05F
KIRKSVILLE     MOSUNNY   50  25  37 NW14G21   30.08F
WICHITA        MOSUNNY   54  29  38 W9        30.17F
TOPEKA         SUNNY     52  29  41 VRB7      30.15F
OLATHE         SUNNY     50  26  39 NW12      30.13F

......TENNESSEE......

CITY           SKY/WX    TMP DP  RH WIND       PRES   REMARKS
MEMPHIS        LGT RAIN  48  42  80 N18G24    29.98F
NASHVILLE      CLOUDY    50  46  86 NW15G22   29.88S

......ARKANSAS.......

CITY           SKY/WX    TMP DP  RH WIND       PRES   REMARKS
FAYETTEVILLE   SUNNY     52  36  54 N10G22    30.09F
FT SMITH       SUNNY     59  34  39 N15G26    30.08F
LITTLE ROCK    CLOUDY    54  45  71 N15       30.03F

......OKLAHOMA.......

CITY           SKY/WX    TMP DP  RH WIND       PRES   REMARKS
TULSA          MOSUNNY   56  33  42 N14G23    30.15F
PONCA CITY     SUNNY     57  26  30 N12G17    30.17F
MCALESTER      PTSUNNY   59  34  39 N20G26    30.13F
OKLAHOMA CITY  MOSUNNY   59  29  31 N18       30.17F

......IOWA............

CITY           SKY/WX    TMP DP  RH WIND       PRES   REMARKS
DES MOINES     PTSUNNY   46  22  38 N17G28    30.10F
QUAD CITIES    SUNNY     46  23  40 NW15G26   30.02S

......ILLINOIS........

CITY           SKY/WX    TMP DP  RH WIND       PRES   REMARKS
QUINCY         SUNNY     48  25  40 NW22      30.04F
CHICAGO        CLOUDY    40  23  50 NW15      29.94F WCI  32




USA.gov is the U.S. government's official web portal to all federal, state and local government web resources and services.